Regional Weather Roundup
Issued by NWS Kansas City/Pleasant Hill, MO

Home | Current Version | Previous Version | Graphics & Text | Print | Product List | Glossary Off
Versions: 1 2 3 4 5 6 7 8 9 10 11 12 13 14 15 16 17 18 19 20 21 22 23 24 25 26 27 28 29 30 31 32 33 34 35 36 37 38 39 40 41 42 43 44 45 46 47 48 49 50

934
ASUS43 KEAX 221010
RWREAX

WEATHER ROUNDUP FOR EASTERN KANSAS AND NORTHWEST MISSOURI
NATIONAL WEATHER SERVICE KANSAS CITY/PLEASANT HILL MO
500 AM CDT SUN OCT 22 2017

KSZ040-057-103>105-MOZ028-029-037-043-221100-
...KANSAS CITY METROPOLITAN AREA...

CITY           SKY/WX    TMP DP  RH WIND       PRES   REMARKS
K.C. INTL      DRIZZLE   49  47  93 N5        30.03R
K.C. DOWNTOWN  LGT RAIN  52  49  89 NW7       30.03R
LEES SUMMIT    RAIN      50  49  96 NW10      30.02R
OLATHE - IXD   CLOUDY    50  47  89 NW7       30.05R
OLATHE - OJC   CLOUDY    49  47  93 N7        30.02R
LAWRENCE       CLOUDY    50  49  96 NW3       30.05R

$$

MOZ001>008-011>017-020>025-030>033-038>040-044>046-053-054-221100-
...NORTHERN AND CENTRAL MISSOURI...

CITY           SKY/WX    TMP DP  RH WIND       PRES   REMARKS
ST. JOSEPH     CLOUDY    50  50 100 W3        30.03R
MOSBY          RAIN      50  46  87 N7        30.00R
WARRENSBURG    RAIN      50  48  93 N10G16    29.96F
WHITEMAN AFB   RAIN      51  49  93 NE17      29.90F
CLINTON        LGT RAIN  52  50  93 NE8       29.96F
SEDALIA        LGT RAIN  53  53 100 N14       29.96F
WARSAW         NOT AVBL
CHILLICOTHE      N/A     50  49  96 N5        30.00S
KIRKSVILLE     LGT RAIN  51  51 100 N10       29.98R

$$

MOZ041-047>049-056>058-063>065-088>090-097-221100-
...EASTERN AND SOUTHERN MISSOURI...

CITY           SKY/WX    TMP DP  RH WIND       PRES   REMARKS
ST. LOUIS INTL CLOUDY    70  63  78 SE16      29.86F
SPIRIT OF STL  CLOUDY    72  64  76 S13       29.85F
COLUMBIA       LGT RAIN  57  57 100 NW15      29.93R
JEFFERSON CITY LGT RAIN  59  56  89 W14       29.93R
ROLLA          LGT RAIN  59  59 100 NW12      29.92R
OSAGE BEACH    LGT RAIN  57  56  96 VRB7G16   29.95R
SPRINGFIELD    RAIN      59  59 100 W6        29.94R
BRANSON        LGT RAIN  57  57 100 CALM      29.97S
JOPLIN         CLOUDY    54  54 100 MISG      30.02R
WEST PLAINS    CLOUDY    59  56  89 NW9G20    29.95F

$$

IAZ060-094-KSZ022-034>040-054-083-096-NEZ052-066-093-221100-
...KANSAS...SOUTHEAST NEBRASKA AND IOWA...

CITY           SKY/WX    TMP DP  RH WIND       PRES   REMARKS
TOPEKA         CLOUDY    51  50  96 CALM      30.05R
MANHATTAN      PTCLDY    46  42  86 CALM      30.08R
EMPORIA        CLOUDY    48  44  86 W3        30.08R
CHANUTE        CLOUDY    52  49  89 NW9       30.06R
WICHITA        CLEAR     46  42  86 NW7       30.11R
OMAHA          MOCLDY    46  39  76 NW5       30.02R
LINCOLN        CLEAR     45  38  76 CALM      30.06R
FALLS CITY     CLOUDY    49  42  77 NW8       30.03R
LAMONI         LGT RAIN  49  47  93 N5        30.00R
DES MOINES     CLOUDY    51  47  86 NW5       29.99R

$$





USA.gov is the U.S. government's official web portal to all federal, state and local government web resources and services.